Weather History for KCPW - October, 2012

Change the Weather History Date:

Tuesday, October 9, 2012

  Actual Average (KALS) Record (KALS)
Temperature  
Mean Temperature 38 °F 46 °F  
Max Temperature 46 °F 65 °F 77 °F (1950)
Min Temperature 30 °F 27 °F 15 °F (1975)
Degree Days  
Heating Degree Days 27 19  
Month to date heating degree days 158  
Since 1 July heating degree days 589  
Cooling Degree Days 0 0  
Month to date cooling degree days 0  
Year to date cooling degree days 51  
Moisture  
Dew Point 15 °F    
Average Humidity 43    
Maximum Humidity 55    
Minimum Humidity 30    
Precipitation  
Precipitation 0.00 in 0.02 in 0.66 in (2005)
Month to date precipitation 0.19  
Year to date precipitation 6.05  
Snow  
Snow 0.00 in 0.00 in T in (2011)
Month to date snowfall 0.2  
Since 1 July snowfall 0.2  
Since 1 September snowfall 0.2  
Snow Depth -    
Sea Level Pressure  
Sea Level Pressure 30.36 in    
Wind  
Wind Speed 14 mph (SW)    
Max Wind Speed 20 mph    
Max Gust Speed 31 mph    
Visibility 10 miles    
Events      
T = Trace of Precipitation, MM = Missing Value Source: NWS Daily Summary

Daily Weather History Graph

Daily Weather History Graph

Search for Another Location

Airport or City:

Trip Planner

Search our weather history database for the weather conditions in past years. The results will help you decide how hot, cold, wet, or windy it might be!

Date:

Astronomy

Oct. 09, 2012 Rise Set
Actual Time 7:10 AM MDT 6:37 PM MDT
Civil Twilight 6:44 AM MDT 7:03 PM MDT
Nautical Twilight 6:13 AM MDT 7:34 PM MDT
Astronomical Twilight 5:43 AM MDT 8:04 PM MDT
Moon 12:56 AM MDT (10/9) 3:00 PM MDT (10/9)
Length of Visible Light 12h 19m
Length of Day
11h 27m
Last Quarter, 36% of the Moon is Illuminated
Oct 9
Last Quarter
Oct 15
New
Oct 21
First Quarter
Oct 29
Full
Nov 6
Last Quarter

Hourly Weather History & Observations

Time (MDT) Temp. Windchill Dew Point Humidity Pressure Visibility Wind Dir Wind Speed Gust Speed Precip Events Conditions
12:04 AM 32.0 °F 20.1 °F 8.6 °F 38% 30.32 in 10.0 mi SW 19.6 mph - N/A   Clear
12:24 AM 32.0 °F 20.5 °F 6.8 °F 35% 30.32 in 10.0 mi WSW 18.4 mph 23.0 mph N/A   Clear
12:45 AM 33.8 °F 23.2 °F 5.0 °F 30% 30.32 in 10.0 mi WSW 17.3 mph 26.5 mph N/A   Clear
1:06 AM 32.0 °F 21.2 °F 6.8 °F 35% 30.32 in 10.0 mi WSW 16.1 mph 25.3 mph N/A   Clear
2:06 AM 32.0 °F 21.6 °F 8.6 °F 38% 30.32 in 10.0 mi WSW 15.0 mph 23.0 mph N/A   Clear
2:27 AM 32.0 °F 21.2 °F 10.4 °F 41% 30.32 in 10.0 mi WSW 16.1 mph 23.0 mph N/A   Clear
2:46 AM 32.0 °F 22.1 °F 10.4 °F 41% 30.32 in 10.0 mi WSW 13.8 mph 20.7 mph N/A   Clear
3:06 AM 32.0 °F 21.6 °F 8.6 °F 38% 30.31 in 10.0 mi WSW 15.0 mph - N/A   Clear
3:26 AM 32.0 °F 22.1 °F 8.6 °F 38% 30.31 in 10.0 mi WSW 13.8 mph 21.9 mph N/A   Clear
3:46 AM 32.0 °F 23.0 °F 8.6 °F 38% 30.31 in 10.0 mi WSW 11.5 mph 19.6 mph N/A   Clear
4:06 AM 32.0 °F 24.2 °F 8.6 °F 38% 30.31 in 10.0 mi SW 9.2 mph 17.3 mph N/A   Clear
4:25 AM 30.2 °F 20.8 °F 8.6 °F 40% 30.31 in 10.0 mi SSW 11.5 mph 18.4 mph N/A   Clear
4:44 AM 30.2 °F 20.8 °F 8.6 °F 40% 30.31 in 10.0 mi SW 11.5 mph 19.6 mph N/A   Clear
5:05 AM 32.0 °F 21.6 °F 8.6 °F 38% 30.31 in 10.0 mi SW 15.0 mph 20.7 mph N/A   Clear
5:25 AM 32.0 °F 20.5 °F 10.4 °F 41% 30.31 in 10.0 mi SW 18.4 mph 23.0 mph N/A   Clear
5:47 AM 30.2 °F 20.8 °F 10.4 °F 44% 30.31 in 10.0 mi SSW 11.5 mph 20.7 mph N/A   Clear
6:07 AM 30.2 °F 19.8 °F 10.4 °F 44% 30.32 in 10.0 mi SW 13.8 mph 20.7 mph N/A   Clear
6:26 AM 30.2 °F 18.5 °F 12.2 °F 47% 30.32 in 10.0 mi SW 17.3 mph 23.0 mph N/A   Clear
6:45 AM 30.2 °F 20.2 °F 12.2 °F 47% 30.32 in 10.0 mi SW 12.7 mph - N/A   Clear
7:05 AM 30.2 °F 19.3 °F 12.2 °F 47% 30.33 in 10.0 mi SW 15.0 mph 18.4 mph N/A   Clear
7:26 AM 30.2 °F 20.8 °F 12.2 °F 47% 30.33 in 10.0 mi SW 11.5 mph - N/A   Clear
7:45 AM 30.2 °F 20.8 °F 12.2 °F 47% 30.33 in 10.0 mi SW 11.5 mph - N/A   Clear
8:04 AM 30.2 °F 20.8 °F 14.0 °F 51% 30.33 in 10.0 mi SW 11.5 mph - N/A   Clear
8:25 AM 32.0 °F 25.6 °F 14.0 °F 48% 30.34 in 10.0 mi SW 6.9 mph - N/A   Clear
8:45 AM 33.8 °F 27.7 °F 14.0 °F 44% 30.35 in 10.0 mi WSW 6.9 mph - N/A   Clear
9:05 AM 33.8 °F 25.8 °F 14.0 °F 44% 30.36 in 10.0 mi SW 10.4 mph - N/A   Clear
9:26 AM 33.8 °F 26.4 °F 14.0 °F 44% 30.36 in 10.0 mi SW 9.2 mph - N/A   Clear
9:44 AM 35.6 °F 28.0 °F 15.8 °F 44% 30.35 in 10.0 mi SSW 10.4 mph 19.6 mph N/A   Clear
10:03 AM 37.4 °F 30.8 °F 17.6 °F 45% 30.36 in 10.0 mi SSW 9.2 mph 21.9 mph N/A   Clear
10:27 AM 39.2 °F 33.6 °F 17.6 °F 42% 30.36 in 10.0 mi SSW 8.1 mph - N/A   Clear
10:45 AM 41.0 °F 33.5 °F 17.6 °F 39% 30.36 in 10.0 mi WSW 13.8 mph 19.6 mph N/A   Clear
11:06 AM 39.2 °F 30.2 °F 17.6 °F 42% 30.36 in 10.0 mi SW 17.3 mph 23.0 mph N/A   Clear
11:25 AM 41.0 °F 33.1 °F 17.6 °F 39% 30.35 in 10.0 mi SW 15.0 mph 25.3 mph N/A   Clear
11:45 AM 42.8 °F 36.2 °F 19.4 °F 39% 30.36 in 10.0 mi SSW 12.7 mph 25.3 mph N/A   Clear
12:05 PM 42.8 °F 37.5 °F 19.4 °F 39% 30.35 in 10.0 mi South 9.2 mph 21.9 mph N/A   Clear
12:23 PM 42.8 °F 38.6 °F 19.4 °F 39% 30.35 in 10.0 mi SW 6.9 mph 19.6 mph N/A   Clear
12:56 PM 42.8 °F 35.4 °F 19.4 °F 39% 30.35 in 10.0 mi SW 15.0 mph 23.0 mph N/A   Clear
1:16 PM 42.8 °F 36.2 °F 17.6 °F 36% 30.35 in 10.0 mi SSW 12.7 mph 31.1 mph N/A   Clear
1:36 PM 42.8 °F 35.4 °F 19.4 °F 39% 30.35 in 10.0 mi WSW 15.0 mph 29.9 mph N/A   Clear
1:56 PM 42.8 °F - 19.4 °F 39% 30.34 in 10.0 mi North - - N/A   Clear
2:16 PM 44.6 °F 36.9 °F 19.4 °F 37% 30.34 in 10.0 mi SW 18.4 mph 26.5 mph N/A   Clear
2:36 PM 44.6 °F 38.4 °F 19.4 °F 37% 30.34 in 10.0 mi SSW 12.7 mph 21.9 mph N/A   Clear
2:56 PM 46.4 °F 41.5 °F 17.6 °F 32% 30.36 in 10.0 mi SSW 10.4 mph 26.5 mph N/A   Clear
3:16 PM 46.4 °F 40.7 °F 17.6 °F 32% 30.36 in 10.0 mi SW 12.7 mph 26.5 mph N/A   Clear
3:36 PM 46.4 °F 41.5 °F 17.6 °F 32% 30.35 in 10.0 mi SSW 10.4 mph 25.3 mph N/A   Clear
3:56 PM 44.6 °F 38.1 °F 17.6 °F 34% 30.36 in 10.0 mi SSW 13.8 mph 23.0 mph N/A   Clear
4:16 PM 44.6 °F 38.8 °F 17.6 °F 34% 30.36 in 10.0 mi SSW 11.5 mph 29.9 mph N/A   Clear
4:36 PM 44.6 °F 38.8 °F 19.4 °F 37% 30.36 in 10.0 mi SW 11.5 mph 23.0 mph N/A   Clear
4:56 PM 44.6 °F 38.1 °F 19.4 °F 37% 30.36 in 10.0 mi South 13.8 mph 24.2 mph N/A   Clear
5:16 PM 42.8 °F 36.2 °F 19.4 °F 39% 30.36 in 10.0 mi SSW 12.7 mph 28.8 mph N/A   Clear
5:36 PM 41.0 °F 33.5 °F 19.4 °F 42% 30.37 in 10.0 mi SSW 13.8 mph 25.3 mph N/A   Clear
5:56 PM 41.0 °F 33.9 °F 19.4 °F 42% 30.37 in 10.0 mi SSW 12.7 mph 26.5 mph N/A   Clear
6:16 PM 41.0 °F 33.1 °F 19.4 °F 42% 30.37 in 10.0 mi SW 15.0 mph 21.9 mph N/A   Clear
6:36 PM 37.4 °F 28.5 °F 17.6 °F 45% 30.38 in 10.0 mi SW 15.0 mph 27.6 mph N/A   Clear
6:56 PM 37.4 °F 30.3 °F 17.6 °F 45% 30.39 in 10.0 mi SW 10.4 mph 25.3 mph N/A   Clear
7:16 PM 37.4 °F 29.3 °F 17.6 °F 45% 30.39 in 10.0 mi SW 12.7 mph 23.0 mph N/A   Clear
7:36 PM 35.6 °F 27.1 °F 17.6 °F 48% 30.39 in 10.0 mi SW 12.7 mph 19.6 mph N/A   Clear
7:49 PM 35.6 °F 26.2 °F 17.6 °F 48% 30.39 in 10.0 mi SW 15.0 mph 24.2 mph N/A   Clear
8:07 PM 35.6 °F 25.5 °F 17.6 °F 48% 30.40 in 10.0 mi SW 17.3 mph 25.3 mph N/A   Clear
8:26 PM 35.6 °F 25.9 °F 17.6 °F 48% 30.40 in 10.0 mi SW 16.1 mph 24.2 mph N/A   Clear
8:46 PM 33.8 °F 23.2 °F 17.6 °F 52% 30.41 in 10.0 mi SW 17.3 mph 24.2 mph N/A   Clear
9:07 PM 33.8 °F 23.5 °F 17.6 °F 52% 30.41 in 10.0 mi SSW 16.1 mph - N/A   Clear
9:27 PM 33.8 °F 23.5 °F 17.6 °F 52% 30.41 in 10.0 mi SW 16.1 mph 21.9 mph N/A   Clear
9:46 PM 33.8 °F 24.3 °F 17.6 °F 52% 30.42 in 10.0 mi SW 13.8 mph 18.4 mph N/A   Clear
10:05 PM 33.8 °F 25.3 °F 17.6 °F 52% 30.43 in 10.0 mi SW 11.5 mph 19.6 mph N/A   Clear
10:25 PM 33.8 °F 24.8 °F 17.6 °F 52% 30.43 in 10.0 mi SW 12.7 mph 19.6 mph N/A   Clear
10:44 PM 33.8 °F 23.9 °F 17.6 °F 52% 30.43 in 10.0 mi SW 15.0 mph 19.6 mph N/A   Clear
11:03 PM 32.0 °F 21.6 °F 17.6 °F 55% 30.43 in 10.0 mi SW 15.0 mph - N/A   Clear
11:24 PM 32.0 °F 22.1 °F 17.6 °F 55% 30.43 in 10.0 mi SW 13.8 mph 17.3 mph N/A   Clear
11:45 PM 32.0 °F 22.5 °F 17.6 °F 55% 30.43 in 10.0 mi SW 12.7 mph 19.6 mph N/A   Clear